TimeMDT,TemperatureF,Dew PointF,Humidity,Sea Level PressureIn,VisibilityMPH,Wind Direction,Wind SpeedMPH,Gust SpeedMPH,PrecipitationIn,Events,Conditions,WindDirDegrees,DateUTC
12:56 AM,50.0,37.0,61,30.01,10.0,WNW,11.5,-,N/A,,Clear,290,2012-09-30 06:56:00
1:56 AM,53.1,37.9,57,30.02,10.0,WNW,11.5,-,N/A,,Clear,300,2012-09-30 07:56:00
2:56 AM,48.9,37.0,64,30.04,10.0,WNW,12.7,-,N/A,,Clear,290,2012-09-30 08:56:00
3:56 AM,50.0,37.0,61,30.05,10.0,West,12.7,-,N/A,,Clear,280,2012-09-30 09:56:00
4:56 AM,48.0,37.0,66,30.07,10.0,North,6.9,-,N/A,,Clear,360,2012-09-30 10:56:00
5:56 AM,46.9,39.0,74,30.10,10.0,NNW,10.4,19.6,N/A,,Mostly Cloudy,340,2012-09-30 11:56:00
6:56 AM,48.0,37.0,66,30.14,10.0,NW,11.5,-,N/A,,Overcast,320,2012-09-30 12:56:00
7:56 AM,45.0,36.0,71,30.19,10.0,NW,4.6,-,N/A,,Clear,320,2012-09-30 13:56:00
8:56 AM,48.0,37.0,66,30.22,10.0,NNW,20.7,28.8,N/A,,Clear,340,2012-09-30 14:56:00
9:56 AM,50.0,37.9,63,30.24,10.0,North,16.1,-,N/A,,Clear,350,2012-09-30 15:56:00
10:56 AM,55.0,37.9,53,30.21,10.0,North,13.8,20.7,N/A,,Clear,360,2012-09-30 16:56:00
11:56 AM,57.0,37.9,49,30.22,10.0,North,13.8,20.7,N/A,,Clear,360,2012-09-30 17:56:00
12:56 PM,59.0,37.9,46,30.22,10.0,NNE,11.5,-,N/A,,Clear,20,2012-09-30 18:56:00
1:56 PM,60.8,37.4,42,30.24,10.0,NNW,8.1,-,N/A,,Clear,340,2012-09-30 19:56:00
3:56 PM,63.0,37.0,38,30.21,10.0,Calm,Calm,-,N/A,,Clear,0,2012-09-30 21:56:00
4:56 PM,64.0,37.0,37,30.22,10.0,East,5.8,-,N/A,,Clear,80,2012-09-30 22:56:00
5:56 PM,63.0,37.0,38,30.22,10.0,East,5.8,-,N/A,,Clear,100,2012-09-30 23:56:00
6:56 PM,57.0,37.0,47,30.25,10.0,ESE,6.9,-,N/A,,Clear,110,2012-10-01 00:56:00
7:56 PM,53.1,36.0,52,30.28,10.0,ESE,5.8,-,N/A,,Clear,110,2012-10-01 01:56:00
8:56 PM,52.0,36.0,54,30.29,10.0,East,5.8,-,N/A,,Clear,100,2012-10-01 02:56:00
9:03 PM,50.0,35.6,58,30.29,10.0,East,6.9,-,N/A,,Partly Cloudy,90,2012-10-01 03:03:00
9:56 PM,48.2,35.6,62,30.29,10.0,ESE,5.8,-,N/A,,Clear,110,2012-10-01 03:56:00
10:45 PM,50.0,35.6,58,30.29,10.0,SSE,3.5,-,N/A,,Partly Cloudy,150,2012-10-01 04:45:00
10:56 PM,48.9,36.0,61,30.29,10.0,South,3.5,-,N/A,,Partly Cloudy,170,2012-10-01 04:56:00
11:56 PM,46.4,35.6,66,30.29,10.0,South,3.5,-,N/A,,Clear,170,2012-10-01 05:56:00